User: anonymous   Login
Location: Gajan
(43.0218°N, 1.1244°E)
Time: 16:44:09
(UTC+00:00)
Language:

X-37B - Orbit

View from above orbital plane
View from above orbital plane
View from above satellite
View from above satellite

Ground track
Ground track

The orbit data is extracted from the following two-line orbital elements,

1 45606U 20029A   21290.74411460 0.00000000  00000-0  00000-0 0    08
2 45606  45.0380 232.6384 0003004 118.6905 241.3091 15.60030799    08
Epoch (UTC): 17 October 2021 17:51:31
Eccentricity: 0.0003004
inclination: 45.0380°
perigee height: 385 km
apogee height: 389 km
right ascension of ascending node: 232.6384°
argument of perigee: 118.6905°
revolutions per day: 15.60030799
mean anomaly at epoch: 241.3091°
orbit number at epoch: 0

The dashed part of the orbit path shows where the satellite is in the earth's shadow,  

DLR